FALCON 9 DEB (53237 NORAD) Tracking and Keplerian Element Data

This shows tracking and keplerian element data for the satellite.

Feedback or suggestion? Click here.




ElementValue
Catalog53237
NameFALCON 9 DEB
Epoch Orbit723
Epoch Day248.16601154
Epoch Year2022
RAAN311.4292
Inclination97.6669
Eccentricity0.0003914
Argument of Perigee140.2318
Mean Anonmoly219.925
Mean Motion16.05329187
Decay Rate0.00615127
L11 53237U 22084BA 22248.16601154 .00615127 18609-3 89045-3 0 9996
L22 53237 97.6669 311.4292 0003914 140.2318 219.9250 16.05329187 7235

Live tracking and technical data element details for FALCON 9 DEB (NORAD 53237). FALCON 9 DEB can be tracked NOW for your location showing map with azimuth and elevation plus other details from your city location.

Track the satellite on the map from your city or location and see movement details for azimuth, elevation, latitude, longitude, range, height, and movement on the map or in text.







IsCatalogInMostPopularTable: catalog: 53237, numindb: 2
Update: records affected: 1



GetName: 53237 FALCON 9 DEB

Hit Count: updated at: Wed, 28 Sep 2022 22:19:49 GMT